Regional Weather Roundup
Issued by NWS

Home | Current Version | Previous Version | Graphics & Text | Print | Product List | Glossary On
Versions: 1 2 3 4 5 6 7 8 9 10 11 12 13 14 15 16 17 18 19 20 21 22 23 24 25 26 27 28 29 30 31 32 33 34 35 36 37 38 39 40 41 42 43 44 45 46 47 48 49 50
000
ASUS43 KLOT 171508
RWRIL

ILLINOIS REGIONAL WEATHER ROUNDUP
NATIONAL WEATHER SERVICE CHICAGO/ROMEOVILLE IL
900 AM CST SAT FEB 17 2018

NOTE: "FAIR" INDICATES FEW OR NO CLOUDS BELOW 12,000 FEET WITH NO
SIGNIFICANT WEATHER AND/OR OBSTRUCTIONS TO VISIBILITY.

* THESE STATIONS ARE NOT UNDER NWS QUALITY CONTROL. THEY ALSO MAY NOT
  REPORT WEATHER SUCH AS PRECIPITATION OR FOG.

ILZ001-002-007-009-015-016-024-171600-
NORTHWEST ILLINOIS

CITY           SKY/WX    TMP DP  RH WIND       PRES   REMARKS
MOLINE         CLOUDY    27  19  72 SE3       30.02F
STERLING*        N/A     22  17  81 MISG        N/A
SAVANNA*       CLOUDY    22  12  67 CALM      30.05S
$$

ILZ003-004-008-010-011-017-018-171600-
NORTH CENTRAL ILLINOIS

CITY           SKY/WX    TMP DP  RH WIND       PRES   REMARKS
ROCKFORD       CLOUDY    21  12  68 S8        30.08S WCI  11
FREEPORT*      PTSUNNY   22  14  69 S8        30.05F WCI  13
ROCHELLE*      PTSUNNY   20  14  76 SE10      30.05F WCI   9
DE KALB*       PTSUNNY   19  12  74 S9        30.05F WCI   8
PERU*          FAIR      23  19  83 SE5       30.08S WCI  17
$$

ILZ005-006-012>014-019>023-171600-
NORTHEAST ILLINOIS

CITY           SKY/WX    TMP DP  RH WIND       PRES   REMARKS
CHICAGO-OHARE  CLOUDY    23  12  62 S7        30.08F WCI  15
CHICAGO-MIDWAY CLOUDY    23  16  74 S8        30.10S WCI  14
AURORA         FAIR      20  13  74 SE3       30.08F
LANSING*       FAIR      24  22  91 S5        30.10S WCI  18
JOLIET*        FAIR      24  20  82 S3        30.10S
WAUKEGAN       FAIR      22   8  55 S10       30.06F WCI  11
DUPAGE AIRPORT FAIR      20  14  77 S7        30.08S WCI  11
KANKAKEE*      FAIR      28  24  85 SE8       30.09F WCI  20
WHEELING       FAIR      23  11  60 S10       30.09F WCI  12
MORRIS*        FAIR      21  16  80 CALM      30.08S
ROMEOVILLE*    FAIR      22  19  85 S6        30.09S WCI  15
NORTHERLY ISL    N/A     24  16  71 S6          N/A  WCI  17
$$

LMZ740>746-171600-
SOUTHERN LAKE MICHIGAN

STATION/POSITION SKY/WX   TEMP    WIND        PRES    VSBY  WAVE
                          AIR SEA DIR/SP/G                  HT/PER
                          (F)     (DEG/KT/KT) (MB)    (MI)  (FT/S)
HARRISON CRIB              25     180/ 15/ 16   N/A
BURNHAM HARBOR             24     190/  6/ 10   N/A
CALUMET HARBOR             23     190/  6/  9 1018.7F
BURNS HARBOR               26     160/ 10/ 14 1019.6F
MICHIGAN CITY              24     150/ 11/ 13   N/A
$$

ILZ025>027-034>036-040-047-049-050-058-095>099-171600-
WEST-CENTRAL ILLINOIS

CITY           SKY/WX    TMP DP  RH WIND       PRES   REMARKS
QUINCY         CLOUDY    32  25  75 S9        30.01F WCI  24
GALESBURG*     PTSUNNY   28  24  83 S9        30.03F WCI  20
MACOMB*        CLOUDY    29  24  83 SE10      30.05F WCI  19
JACKSONVILLE*  CLOUDY    32  26  78 SE10G17   30.05F WCI  24
PITTSFIELD*    CLOUDY    31  28  86 SE10      30.03F WCI  23
$$

ILZ028>032-037-038-041>044-048-051>054-059>061-171600-
CENTRAL ILLINOIS

CITY           SKY/WX    TMP DP  RH WIND       PRES   REMARKS
PONTIAC        CLOUDY    29  29  99 S10       30.09F WCI  20
BLOOMINGTON    CLOUDY    29  26  89 S10       30.08R WCI  20
DECATUR        CLOUDY    31  27  85 S9        30.09S WCI  23
PEORIA         CLOUDY    30  25  81 S10       30.07F WCI  21
LACON*         FAIR      28  24  84 S3        30.06F
LINCOLN*       CLOUDY    32  29  90 S8        30.09S WCI  24
SPRINGFIELD    CLOUDY    33  26  75 S16       30.06F WCI  23
TAYLORVILLE    FLURRIES  31  27  84 SE9       30.09F WCI  23
$$

ILZ033-039-045-046-055>057-062-063-171600-
EAST-CENTRAL ILLINOIS

CITY           SKY/WX    TMP DP  RH WIND       PRES   REMARKS
CHAMPAIGN      CLOUDY    30  27  88 SE9       30.08F WCI  22
DANVILLE*      CLOUDY    29  26  88 S6        30.09R WCI  23
RANTOUL*       CLOUDY    31  29  90 SE8       30.08F WCI  24
MATTOON        CLOUDY    31  27  85 SW3       30.09R
PARIS*         CLOUDY    31  28  90 SE5       30.11R WCI  26
$$

ILZ079-100>102-171600-
SOUTHWEST ILLINOIS

CITY           SKY/WX    TMP DP  RH WIND       PRES   REMARKS
ALTON          LGT SNOW  32  32 100 SE8       30.08F WCI  25
BELLEVILLE     LGT SNOW  32  30  93 SE6       30.10F VSB 5/8 WCI  26
CAHOKIA*       SNOW      32  31  96 SE10      30.09F VSB 1/2 WCI  24
SPARTA*        LGT SNOW  32  32 100 CALM      30.14F VSB 1
$$

ILZ064>066-069>071-074>076-080>082-084>086-088>090-092>094-171600-
SOUTH-CENTRAL ILLINOIS

CITY           SKY/WX    TMP DP  RH WIND       PRES   REMARKS
CARBONDALE     LGT SNOW  32  32 100 CALM      30.13R VSB 1
CAIRO*         LGT SNOW  35  35  98 E7        30.10F WCI  29
EFFINGHAM*     LGT SNOW  32  31  95 SE7       30.14R WCI  26
MARION         LGT SNOW  32  32 100 SE6       30.14F FOG     WCI  26
MT. VERNON     LGT SNOW  34  28  80 CALM      30.13S VSB 3/4
CENTRALIA*     LGT SNOW  32  32  99 SE6       30.11F VSB 3/4 WCI  27
SALEM*         SNOW      33  31  92 SE3       30.13S VSB 1/2
METROPOLIS*    RAIN      36  35  96 CALM      30.14F
$$

ILZ067-068-072-073-078-083-087-091-171600-
SOUTHEAST ILLINOIS

CITY           SKY/WX    TMP DP  RH WIND       PRES   REMARKS
LAWRENCEVILLE  CLOUDY    34  31  88 SE6       30.13R WCI  29
FLORA*         LGT SNOW  33  31  90 CALM      30.15R VSB 1
FAIRFIELD*     LGT RAIN  34  31  92 CALM      30.13F
HARRISBURG*    LGT SNOW  34  33  96 SE9       30.13F WCI  26
ROBINSON*      CLOUDY    32  29  90 SE8       30.13S WCI  25
CARMI*         LGT SNOW  34  32  94 SE13      30.11F WCI  25
$$

ABBREVIATIONS USED IN REMARKS
   TC - TEMPERATURE IN CELSIUS
  WCI - WIND CHILL INDEX
   HX - HEAT INDEX
  VSB - VISIBILITY
$$





USA.gov is the U.S. government's official web portal to all federal, state and local government web resources and services.